WXM80 ListenWXM80 Stop

You find our weather info also at:

UK Metoffice

WeatherCloud

Weather Underground

Northeastern Weather Network

AWEKAS

Citizen Weather Observer Program (CWOP)

HAMweather, WeatherForYou, PWS Weather


Weather Underground History page Text

Daily Summary for May 30, 2017 Units:  Metric    English   Both
« Previous Day
Next Day »
Daily Weekly Monthly Yearly Custom
  High: Low: Average:
Temperature: 17.2 °C 12.3 °C 14.4 °C
Dew Point: 14.6 °C 11.4 °C 12.8 °C
Humidity: 96 % 80 % 90 %
Wind Speed: 9 km/h 0 km/h 1.8 km/h
Wind Gust: 13 km/h - -
Wind:- - SE
Pressure: 1020.9 hPa 1017.8 hPa -
Precipitation: 0 mm    
Historical Graphs
 
 
Tabular Data for May 30, 2017
Time Temperature Dew Point Pressure Wind Wind Speed Wind Gust Humidity Rainfall Rate (Hourly)
00:04 12.7 °C 11.9 °C 1017.8 hPa Calm   1.6 km/h 95 % 0 mm
00:09 12.7 °C 11.9 °C 1017.8 hPa Calm     95 % 0 mm
00:14 12.7 °C 11.9 °C 1018.2 hPa Calm     95 % 0 mm
00:19 12.7 °C 11.9 °C 1018.2 hPa Calm     95 % 0 mm
00:24 12.7 °C 11.9 °C 1018.5 hPa Calm     95 % 0 mm
00:29 12.7 °C 11.9 °C 1018.5 hPa Calm     95 % 0 mm
00:34 12.7 °C 11.9 °C 1018.5 hPa Calm     95 % 0 mm
00:39 12.7 °C 11.9 °C 1018.5 hPa Calm     95 % 0 mm
00:44 12.7 °C 11.9 °C 1018.5 hPa Calm     95 % 0 mm
00:49 12.7 °C 11.9 °C 1018.5 hPa Calm     95 % 0 mm
00:54 12.7 °C 11.9 °C 1018.5 hPa Calm     95 % 0 mm
00:59 12.7 °C 11.9 °C 1018.8 hPa Calm     95 % 0 mm
01:04 12.7 °C 11.9 °C 1018.8 hPa SE 1.9 km/h 5.6 km/h 95 % 0 mm
01:09 12.8 °C 12 °C 1018.8 hPa Calm   1.6 km/h 95 % 0 mm
01:14 12.8 °C 12.2 °C 1019.2 hPa Calm     96 % 0 mm
01:20 12.8 °C 12.2 °C 1019.2 hPa Calm     96 % 0 mm
01:30 12.8 °C 12.2 °C 1019.2 hPa Calm     96 % 0 mm
01:35 12.8 °C 12.2 °C 1019.2 hPa Calm     96 % 0 mm
01:40 12.8 °C 12.2 °C 1019.2 hPa Calm     96 % 0 mm
01:45 12.8 °C 12.2 °C 1018.8 hPa Calm     96 % 0 mm
01:50 12.8 °C 12.2 °C 1018.8 hPa Calm     96 % 0 mm
01:55 12.8 °C 12.2 °C 1018.8 hPa Calm     96 % 0 mm
02:00 12.8 °C 12.2 °C 1018.8 hPa Calm     96 % 0 mm
02:05 12.8 °C 12.2 °C 1018.8 hPa Calm     96 % 0 mm
02:10 12.8 °C 12.2 °C 1018.8 hPa Calm     96 % 0 mm
02:15 12.8 °C 12.2 °C 1019.2 hPa Calm     96 % 0 mm
02:20 12.8 °C 12.2 °C 1019.2 hPa Calm     96 % 0 mm
02:25 12.8 °C 12.2 °C 1019.2 hPa Calm     96 % 0 mm
02:30 12.8 °C 12.2 °C 1019.2 hPa Calm     96 % 0 mm
02:35 12.8 °C 12.2 °C 1019.2 hPa Calm     96 % 0 mm
02:40 12.7 °C 11.9 °C 1019.2 hPa Calm     95 % 0 mm
02:45 12.7 °C 11.9 °C 1019.2 hPa Calm     95 % 0 mm
02:50 12.7 °C 11.9 °C 1019.2 hPa Calm     95 % 0 mm
02:55 12.7 °C 11.9 °C 1019.2 hPa Calm     95 % 0 mm
03:00 12.7 °C 12.1 °C 1018.8 hPa Calm     96 % 0 mm
03:05 12.7 °C 12.1 °C 1019.2 hPa Calm     96 % 0 mm
03:10 12.7 °C 11.9 °C 1018.8 hPa SE 0.5 km/h 1.9 km/h 95 % 0 mm
03:15 12.7 °C 11.9 °C 1018.8 hPa Calm   1.9 km/h 95 % 0 mm
03:20 12.7 °C 11.9 °C 1019.2 hPa Calm     95 % 0 mm
03:25 12.7 °C 11.9 °C 1019.2 hPa Calm     95 % 0 mm
03:31 12.7 °C 11.9 °C 1019.2 hPa Calm   1.6 km/h 95 % 0 mm
03:36 12.7 °C 11.9 °C 1019.2 hPa Calm   3.2 km/h 95 % 0 mm
03:41 12.7 °C 11.9 °C 1019.2 hPa Calm   1.6 km/h 95 % 0 mm
03:46 12.7 °C 11.9 °C 1019.2 hPa Calm   3.2 km/h 95 % 0 mm
03:51 12.7 °C 11.9 °C 1019.5 hPa SE 1.6 km/h 3.2 km/h 95 % 0 mm
03:56 12.6 °C 11.8 °C 1019.2 hPa SE 1.6 km/h 6.4 km/h 95 % 0 mm
04:01 12.6 °C 11.6 °C 1019.2 hPa Calm   5.6 km/h 94 % 0 mm
04:06 12.5 °C 11.7 °C 1019.2 hPa SSE 2.6 km/h 5.6 km/h 95 % 0 mm
04:11 12.5 °C 11.6 °C 1019.2 hPa Calm   4.8 km/h 94 % 0 mm
04:16 12.5 °C 11.6 °C 1019.2 hPa SE 2.4 km/h 5.6 km/h 94 % 0 mm
04:21 12.4 °C 11.5 °C 1019.2 hPa SE 3.2 km/h 6.4 km/h 94 % 0 mm
04:26 12.4 °C 11.5 °C 1019.5 hPa Calm   4.8 km/h 94 % 0 mm
04:31 12.4 °C 11.5 °C 1019.5 hPa Calm   4.8 km/h 94 % 0 mm
04:36 12.4 °C 11.5 °C 1019.5 hPa SE 1.6 km/h 8 km/h 94 % 0 mm
04:41 12.4 °C 11.5 °C 1019.5 hPa Calm   4.8 km/h 94 % 0 mm
04:46 12.4 °C 11.5 °C 1019.5 hPa Calm   8 km/h 94 % 0 mm
04:51 12.4 °C 11.5 °C 1019.5 hPa Calm   3.2 km/h 94 % 0 mm
04:56 12.4 °C 11.4 °C 1019.5 hPa SSE 1.6 km/h 6.4 km/h 94 % 0 mm
05:01 12.4 °C 11.4 °C 1019.5 hPa SE 0.8 km/h 3.2 km/h 94 % 0 mm
05:06 12.4 °C 11.4 °C 1019.5 hPa Calm     94 % 0 mm
05:11 12.4 °C 11.4 °C 1019.5 hPa Calm   1.9 km/h 94 % 0 mm
05:16 12.4 °C 11.6 °C 1019.5 hPa Calm     95 % 0 mm
05:21 12.3 °C 11.4 °C 1019.5 hPa SE 2.6 km/h 9.3 km/h 94 % 0 mm
05:26 12.3 °C 11.4 °C 1019.9 hPa SSE 1.1 km/h 4.8 km/h 94 % 0 mm
05:31 12.3 °C 11.4 °C 1019.9 hPa SSE 0.8 km/h 1.6 km/h 94 % 0 mm
05:36 12.3 °C 11.4 °C 1019.9 hPa SE 1.6 km/h 5.6 km/h 94 % 0 mm
05:41 12.3 °C 11.4 °C 1019.9 hPa SE 0.5 km/h 3.7 km/h 94 % 0 mm
05:46 12.3 °C 11.4 °C 1019.9 hPa Calm   1.9 km/h 94 % 0 mm
05:51 12.3 °C 11.6 °C 1019.9 hPa Calm     95 % 0 mm
05:56 12.3 °C 11.6 °C 1019.9 hPa Calm     95 % 0 mm
06:01 12.3 °C 11.6 °C 1019.9 hPa SSE 6.3 km/h 9.7 km/h 95 % 0 mm
06:06 12.3 °C 11.6 °C 1020.2 hPa Calm     95 % 0 mm
06:11 12.3 °C 11.6 °C 1020.2 hPa Calm   5.6 km/h 95 % 0 mm
06:16 12.4 °C 11.6 °C 1020.2 hPa SE 1.3 km/h 4.8 km/h 95 % 0 mm
06:21 12.4 °C 11.6 °C 1020.2 hPa SE 2.1 km/h 5.6 km/h 95 % 0 mm
06:26 12.4 °C 11.6 °C 1020.2 hPa SE 0.6 km/h 3.7 km/h 95 % 0 mm
06:31 12.4 °C 11.7 °C 1020.2 hPa SSE 8.4 km/h 13 km/h 95 % 0 mm
06:36 12.4 °C 11.7 °C 1020.5 hPa SE 7.4 km/h 9.3 km/h 95 % 0 mm
06:41 12.4 °C 11.7 °C 1020.2 hPa SSE 1.9 km/h 9.3 km/h 95 % 0 mm
06:46 12.4 °C 11.7 °C 1020.2 hPa SE 4.3 km/h 5.6 km/h 95 % 0 mm
06:51 12.5 °C 11.7 °C 1020.5 hPa SSE 7.6 km/h 9.7 km/h 95 % 0 mm
06:56 12.5 °C 11.7 °C 1020.2 hPa SSE 2.7 km/h 9.3 km/h 95 % 0 mm
07:01 12.5 °C 11.7 °C 1020.2 hPa ESE 4 km/h 9.3 km/h 95 % 0 mm
07:06 12.6 °C 11.8 °C 1020.2 hPa SE 3.4 km/h 7.4 km/h 95 % 0 mm
07:11 12.6 °C 11.8 °C 1020.2 hPa SE 3.5 km/h 5.6 km/h 95 % 0 mm
07:16 12.6 °C 11.8 °C 1020.5 hPa Calm   1.9 km/h 95 % 0 mm
07:21 12.6 °C 11.8 °C 1020.5 hPa SSE 0.6 km/h 6.4 km/h 95 % 0 mm
07:26 12.7 °C 11.9 °C 1020.5 hPa SE 2.9 km/h 7.4 km/h 95 % 0 mm
07:31 12.7 °C 11.9 °C 1020.5 hPa SSE 2.4 km/h 9.3 km/h 95 % 0 mm
07:36 12.7 °C 11.9 °C 1020.9 hPa SSE 3.9 km/h 3.9 km/h 95 % 0 mm
07:41 12.7 °C 11.9 °C 1020.5 hPa SE 1 km/h 5.6 km/h 95 % 0 mm
07:46 12.8 °C 12 °C 1020.5 hPa SE 0.6 km/h 5.6 km/h 95 % 0 mm
07:51 12.8 °C 12.1 °C 1020.5 hPa SE 2.4 km/h 9.3 km/h 95 % 0 mm
07:56 12.8 °C 12.1 °C 1020.9 hPa SE 4.7 km/h 7.4 km/h 95 % 0 mm
08:01 12.9 °C 12.1 °C 1020.9 hPa SE 1.3 km/h 5.6 km/h 95 % 0 mm
08:06 12.9 °C 12.2 °C 1020.9 hPa SE 1.3 km/h 3.7 km/h 95 % 0 mm
08:11 12.9 °C 12.2 °C 1020.9 hPa Calm   3.7 km/h 95 % 0 mm
08:16 13 °C 12.2 °C 1020.9 hPa SE 1.8 km/h 9.3 km/h 95 % 0 mm
08:21 13 °C 12.2 °C 1020.9 hPa SE 0.3 km/h 6.4 km/h 95 % 0 mm
08:22 13.1 °C 12.3 °C 1020.9 hPa SE 2.6 km/h 5.6 km/h 95 % 0 mm
08:27 13.1 °C 12.3 °C 1020.9 hPa SE 0.3 km/h 1.9 km/h 95 % 0 mm
08:32 13.2 °C 12.4 °C 1020.9 hPa SE 1.8 km/h 3.2 km/h 95 % 0 mm
08:38 13.2 °C 12.4 °C 1020.9 hPa Calm   1.9 km/h 95 % 0 mm
08:48 13.3 °C 12.6 °C 1020.9 hPa SE 0.2 km/h 5.6 km/h 95 % 0 mm
08:53 13.4 °C 12.4 °C 1020.9 hPa SE 0.8 km/h 3.7 km/h 94 % 0 mm
08:58 13.5 °C 12.7 °C 1020.9 hPa SE 1.6 km/h 5.6 km/h 95 % 0 mm
09:03 13.7 °C 12.9 °C 1020.9 hPa Calm     95 % 0 mm
09:08 13.8 °C 12.8 °C 1020.9 hPa SE 1.6 km/h 5.6 km/h 94 % 0 mm
09:13 13.9 °C 12.9 °C 1020.5 hPa SSE 4 km/h 8 km/h 94 % 0 mm
09:18 13.9 °C 13 °C 1020.9 hPa ESE 0.8 km/h 11.1 km/h 94 % 0 mm
09:23 14.1 °C 12.9 °C 1020.9 hPa SSE 6.4 km/h 9.3 km/h 93 % 0 mm
09:28 14.1 °C 12.8 °C 1020.9 hPa SE 3.5 km/h 5.6 km/h 92 % 0 mm
09:33 14.1 °C 12.8 °C 1020.9 hPa SSE 2.4 km/h 5.6 km/h 92 % 0 mm
09:38 14.2 °C 13.1 °C 1020.5 hPa Calm   1.6 km/h 93 % 0 mm
09:43 14.3 °C 13.2 °C 1020.9 hPa SE 0.8 km/h 5.6 km/h 93 % 0 mm
09:48 14.4 °C 13.3 °C 1020.9 hPa Calm     93 % 0 mm
09:53 14.4 °C 13.2 °C 1020.9 hPa SE 1 km/h 1.9 km/h 92 % 0 mm
09:58 14.5 °C 13.2 °C 1020.9 hPa SSE 3.5 km/h 5.6 km/h 92 % 0 mm
10:03 14.6 °C 13.3 °C 1020.9 hPa SE 0.2 km/h 1.9 km/h 92 % 0 mm
10:08 14.6 °C 13.3 °C 1020.5 hPa SSE 1.4 km/h 4.8 km/h 92 % 0 mm
10:13 14.7 °C 13.2 °C 1020.5 hPa SE 1 km/h 5.6 km/h 91 % 0 mm
10:18 14.8 °C 13.5 °C 1020.5 hPa SE 4 km/h 7.4 km/h 92 % 0 mm
10:23 14.7 °C 13.3 °C 1020.9 hPa SE 1.9 km/h 7.4 km/h 91 % 0 mm
10:28 14.8 °C 13.2 °C 1020.5 hPa SSE 0.8 km/h 7.4 km/h 90 % 0 mm
10:33 14.8 °C 13.4 °C 1020.5 hPa Calm   1.9 km/h 91 % 0 mm
10:38 15 °C 13.7 °C 1020.5 hPa Calm   1.9 km/h 92 % 0 mm
10:43 15 °C 13.4 °C 1020.5 hPa SSE 2.9 km/h 5.6 km/h 90 % 0 mm
10:48 15.1 °C 13.5 °C 1020.5 hPa Calm   1.9 km/h 90 % 0 mm
10:54 15.2 °C 13.6 °C 1020.5 hPa SE 0.2 km/h 9.3 km/h 90 % 0 mm
10:59 15.2 °C 13.2 °C 1020.5 hPa SE 4.2 km/h 9.3 km/h 88 % 0 mm
11:04 15.3 °C 13.5 °C 1020.5 hPa SE 0.3 km/h 3.2 km/h 89 % 0 mm
11:09 15.4 °C 13.8 °C 1020.5 hPa SSE 5 km/h 7.4 km/h 90 % 0 mm
11:14 15.6 °C 13.7 °C 1020.5 hPa SE 1.1 km/h 3.2 km/h 89 % 0 mm
11:19 15.7 °C 13.8 °C 1020.5 hPa ESE 1.6 km/h 5.6 km/h 89 % 0 mm
11:24 15.7 °C 13.7 °C 1020.5 hPa SE 5 km/h 9.3 km/h 88 % 0 mm
11:29 15.8 °C 13.9 °C 1020.2 hPa SE 5.6 km/h 9.3 km/h 89 % 0 mm
11:34 15.9 °C 13.9 °C 1020.2 hPa Calm   3.7 km/h 88 % 0 mm
11:39 16 °C 13.8 °C 1020.2 hPa SE 0.8 km/h 3.7 km/h 87 % 0 mm
11:44 16.1 °C 13.9 °C 1020.2 hPa SSE 0.3 km/h 3.7 km/h 87 % 0 mm
11:49 16.3 °C 14.3 °C 1020.2 hPa SSE 0.3 km/h 3.7 km/h 88 % 0 mm
11:54 16.5 °C 14.5 °C 1020.2 hPa ESE 1.3 km/h 3.7 km/h 88 % 0 mm
11:59 16.5 °C 13.9 °C 1020.5 hPa SSE 2.4 km/h 5.6 km/h 85 % 0 mm
12:04 16.6 °C 14.2 °C 1020.5 hPa SSE 0.2 km/h 3.7 km/h 86 % 0 mm
12:09 16.6 °C 14 °C 1020.5 hPa SE 0.2 km/h 1.9 km/h 85 % 0 mm
12:14 16.5 °C 13.8 °C 1020.5 hPa SSE 1.8 km/h 11.1 km/h 84 % 0 mm
12:19 16.5 °C 13.8 °C 1020.9 hPa SSE 1.4 km/h 7.4 km/h 84 % 0 mm
12:24 16.4 °C 13.7 °C 1020.5 hPa SSE 1.4 km/h 5.6 km/h 84 % 0 mm
12:29 16.5 °C 13.9 °C 1020.5 hPa SSE 2.9 km/h 7.4 km/h 85 % 0 mm
12:34 16.5 °C 13.8 °C 1020.5 hPa SSE 5.8 km/h 11.3 km/h 84 % 0 mm
12:39 16.6 °C 14.1 °C 1020.5 hPa SSW 2.4 km/h 4.8 km/h 85 % 0 mm
12:44 16.6 °C 13.5 °C 1020.5 hPa SSE 2.4 km/h 7.4 km/h 82 % 0 mm
12:49 16.7 °C 14 °C 1020.2 hPa SE 2.3 km/h 5.6 km/h 84 % 0 mm
12:54 16.8 °C 14.1 °C 1020.5 hPa SE 2.3 km/h 5.6 km/h 84 % 0 mm
12:59 17 °C 14.4 °C 1020.2 hPa SE 3.4 km/h 5.6 km/h 85 % 0 mm
13:04 17.2 °C 14.6 °C 1020.2 hPa SE 3.4 km/h 7.4 km/h 85 % 0 mm
13:09 17.2 °C 14.3 °C 1020.2 hPa ESE 1.3 km/h 9.3 km/h 83 % 0 mm
13:14 17.2 °C 14.1 °C 1020.2 hPa ESE 1.6 km/h 11.1 km/h 82 % 0 mm
13:19 17.2 °C 14.1 °C 1020.2 hPa Calm   9.3 km/h 82 % 0 mm
13:24 17.2 °C 14.1 °C 1020.2 hPa SSE 5.8 km/h 6.4 km/h 82 % 0 mm
13:29 17.1 °C 13.8 °C 1020.2 hPa SE 6.1 km/h 13 km/h 81 % 0 mm
13:35 16.9 °C 13.8 °C 1020.2 hPa SSW 0.3 km/h 5.6 km/h 82 % 0 mm
13:40 16.9 °C 13.8 °C 1019.9 hPa SSE 4.2 km/h 7.4 km/h 82 % 0 mm
13:45 16.9 °C 14.1 °C 1019.9 hPa ESE 1.9 km/h 9.3 km/h 83 % 0 mm
13:50 17 °C 13.9 °C 1019.9 hPa SSE 2.9 km/h 9.3 km/h 82 % 0 mm
13:55 16.9 °C 13.6 °C 1019.9 hPa SE 1.8 km/h 5.6 km/h 81 % 0 mm
14:00 16.9 °C 14.1 °C 1019.9 hPa SW 0.6 km/h 9.3 km/h 83 % 0 mm
14:05 16.9 °C 13.6 °C 1019.5 hPa SE 5.5 km/h 9.3 km/h 81 % 0 mm
14:10 16.8 °C 13.5 °C 1019.5 hPa SSE 6.6 km/h 11.1 km/h 81 % 0 mm
14:15 16.7 °C 13.6 °C 1019.2 hPa SE 6.4 km/h 9.3 km/h 82 % 0 mm
14:20 16.6 °C 13.4 °C 1019.5 hPa SE 1.4 km/h 5.6 km/h 82 % 0 mm
14:25 16.6 °C 13.7 °C 1019.2 hPa SE 5.1 km/h 11.1 km/h 83 % 0 mm
14:30 16.4 °C 13.3 °C 1019.2 hPa SSE 3.7 km/h 5.6 km/h 82 % 0 mm
14:35 16.3 °C 13.4 °C 1019.2 hPa ESE 2.9 km/h 7.4 km/h 83 % 0 mm
14:40 16.3 °C 13.4 °C 1019.5 hPa ESE 3.7 km/h 5.6 km/h 83 % 0 mm
14:45 16.3 °C 13.8 °C 1019.2 hPa SSE 3.9 km/h 5.6 km/h 85 % 0 mm
14:50 16.3 °C 13.6 °C 1019.2 hPa SE 1.3 km/h 5.6 km/h 84 % 0 mm
14:55 16.2 °C 13.3 °C 1019.2 hPa SSE 4.7 km/h 6.4 km/h 83 % 0 mm
15:00 16 °C 13.1 °C 1019.2 hPa SSW 1.9 km/h 9.3 km/h 83 % 0 mm
15:05 15.9 °C 13.2 °C 1019.2 hPa SE 6.8 km/h 11.1 km/h 84 % 0 mm
15:10 15.9 °C 13.2 °C 1018.8 hPa SE 4.5 km/h 7.4 km/h 84 % 0 mm
15:15 15.9 °C 13.2 °C 1018.8 hPa SSE 0.2 km/h 1.9 km/h 84 % 0 mm
15:20 16 °C 13.5 °C 1018.8 hPa SE 1.1 km/h 3.7 km/h 85 % 0 mm
15:25 16.1 °C 13.6 °C 1018.8 hPa SE 3.4 km/h 5.6 km/h 85 % 0 mm
15:30 16.2 °C 13.7 °C 1018.8 hPa ESE 3.4 km/h 5.6 km/h 85 % 0 mm
15:35 16.2 °C 13.5 °C 1018.8 hPa SSE 3.4 km/h 9.7 km/h 84 % 0 mm
15:40 16.3 °C 13.2 °C 1018.8 hPa SE 9 km/h 9.3 km/h 82 % 0 mm
15:45 16.3 °C 13.6 °C 1019.2 hPa SE 3.1 km/h 9.3 km/h 84 % 0 mm
15:50 16.3 °C 13.4 °C 1019.2 hPa ESE 0.6 km/h 11.1 km/h 83 % 0 mm
15:55 16.3 °C 13.6 °C 1019.2 hPa SSE 2.4 km/h 9.3 km/h 84 % 0 mm
16:00 16.4 °C 13.8 °C 1019.2 hPa ESE 2.1 km/h 3.7 km/h 85 % 0 mm
16:05 16.4 °C 13.7 °C 1019.2 hPa SSE 3.7 km/h 4.8 km/h 84 % 0 mm
16:10 16.3 °C 13.3 °C 1019.2 hPa SE 1.4 km/h 5.6 km/h 82 % 0 mm
16:15 16.4 °C 13.5 °C 1018.8 hPa SE 2.1 km/h 5.6 km/h 83 % 0 mm
16:20 16.5 °C 13.6 °C 1019.2 hPa SE 2.6 km/h 4.8 km/h 83 % 0 mm
16:25 16.6 °C 13.7 °C 1019.2 hPa ESE 5 km/h 8 km/h 83 % 0 mm
16:30 16.6 °C 13.5 °C 1019.2 hPa SSE 0.2 km/h 5.6 km/h 82 % 0 mm
16:35 16.6 °C 13.3 °C 1018.8 hPa SE 6.4 km/h 11.1 km/h 81 % 0 mm
16:38 16.6 °C 13.3 °C 1019.2 hPa SE 3.4 km/h 5.6 km/h 81 % 0 mm
16:43 16.5 °C 13.2 °C 1019.2 hPa SE 3.5 km/h 8 km/h 81 % 0 mm
16:48 16.5 °C 13.4 °C 1018.8 hPa SSE 8.2 km/h 13 km/h 82 % 0 mm
16:53 16.4 °C 13.2 °C 1018.8 hPa SSE 1.9 km/h 5.6 km/h 81 % 0 mm
16:58 16.4 °C 13.2 °C 1018.8 hPa SE 4.8 km/h 7.4 km/h 81 % 0 mm
17:03 16.6 °C 13.7 °C 1018.8 hPa SE 0.2 km/h 1.9 km/h 83 % 0 mm
17:08 16.7 °C 14.2 °C 1018.5 hPa SE 0.2 km/h 1.9 km/h 85 % 0 mm
17:13 16.9 °C 13.8 °C 1018.5 hPa SE 2.4 km/h 6.4 km/h 82 % 0 mm
17:18 17 °C 13.9 °C 1018.5 hPa SE 1.3 km/h 5.6 km/h 82 % 0 mm
17:23 17.2 °C 14.3 °C 1018.5 hPa SE 2.1 km/h 3.7 km/h 83 % 0 mm
17:28 17.2 °C 14.1 °C 1018.5 hPa SE 1 km/h 5.6 km/h 82 % 0 mm
17:33 17.1 °C 13.9 °C 1018.8 hPa South 1.3 km/h 6.4 km/h 82 % 0 mm
17:38 17.1 °C 14 °C 1018.5 hPa SSE 1.1 km/h 1.9 km/h 82 % 0 mm
17:43 17.2 °C 14.1 °C 1018.5 hPa SE 3.7 km/h 8 km/h 82 % 0 mm
17:48 17.2 °C 14.1 °C 1018.5 hPa Calm     82 % 0 mm
17:53 17.2 °C 14.1 °C 1018.5 hPa SE 0.2 km/h 1.9 km/h 82 % 0 mm
17:58 17 °C 13.5 °C 1018.8 hPa SSE 6.6 km/h 9.7 km/h 80 % 0 mm
18:03 16.7 °C 13.3 °C 1019.2 hPa SSE 5.6 km/h 12.9 km/h 80 % 0 mm
18:08 16.5 °C 13.2 °C 1019.2 hPa SSE 1.3 km/h 5.6 km/h 81 % 0 mm
18:13 16.3 °C 13 °C 1019.2 hPa SE 4.2 km/h 7.4 km/h 81 % 0 mm
18:18 16.2 °C 13.1 °C 1019.2 hPa SSE 5 km/h 7.4 km/h 82 % 0 mm
18:23 16 °C 13.1 °C 1019.2 hPa SE 0.3 km/h 1.9 km/h 83 % 0 mm
18:28 16 °C 13.3 °C 1019.2 hPa SE 3.5 km/h 5.6 km/h 84 % 0 mm
18:33 15.9 °C 13.4 °C 1019.2 hPa SE 0.3 km/h 1.9 km/h 85 % 0 mm
18:38 15.9 °C 13.4 °C 1019.2 hPa SE 1.6 km/h 3.7 km/h 85 % 0 mm
18:44 15.8 °C 13.1 °C 1019.2 hPa Calm     84 % 0 mm
18:49 15.8 °C 13.1 °C 1019.2 hPa SE 1.8 km/h 6.4 km/h 84 % 0 mm
18:54 15.7 °C 13.2 °C 1019.2 hPa Calm     85 % 0 mm
18:59 15.7 °C 13.2 °C 1019.2 hPa SE 1.8 km/h 3.7 km/h 85 % 0 mm
19:04 15.6 °C 13.3 °C 1018.8 hPa SE 1.4 km/h 5.6 km/h 86 % 0 mm
19:09 15.6 °C 13.2 °C 1018.8 hPa SE 5.6 km/h 9.3 km/h 86 % 0 mm
19:14 15.5 °C 13.2 °C 1018.5 hPa SSE 6.8 km/h 13 km/h 86 % 0 mm
19:19 15.4 °C 13.1 °C 1018.5 hPa SE 4.8 km/h 7.4 km/h 86 % 0 mm
19:24 15.4 °C 13.2 °C 1018.5 hPa SE 1.9 km/h 5.6 km/h 87 % 0 mm
19:29 15.3 °C 13.2 °C 1018.5 hPa SE 3.1 km/h 9.3 km/h 87 % 0 mm
19:34 15.3 °C 12.9 °C 1018.5 hPa SSE 0.6 km/h 3.7 km/h 86 % 0 mm
19:39 15.2 °C 13.1 °C 1018.5 hPa South 4.8 km/h 11.3 km/h 87 % 0 mm
19:44 15.2 °C 13 °C 1018.5 hPa SE 4 km/h 7.4 km/h 87 % 0 mm
19:49 15.1 °C 12.9 °C 1018.5 hPa SSE 5.3 km/h 7.4 km/h 87 % 0 mm
19:54 15.1 °C 12.9 °C 1018.5 hPa SE 1.8 km/h 3.7 km/h 87 % 0 mm
19:59 14.9 °C 13 °C 1018.5 hPa SE 3.2 km/h 6.4 km/h 88 % 0 mm
20:04 14.9 °C 12.9 °C 1018.5 hPa SSE 4.7 km/h 8 km/h 88 % 0 mm
20:09 14.8 °C 12.8 °C 1018.5 hPa SE 2.7 km/h 7.4 km/h 88 % 0 mm
20:14 14.7 °C 12.8 °C 1018.8 hPa SE 0.5 km/h 5.6 km/h 88 % 0 mm
20:20 14.7 °C 12.7 °C 1018.8 hPa SE 0.5 km/h 3.7 km/h 88 % 0 mm
20:25 14.6 °C 12.8 °C 1018.8 hPa SSE 0.6 km/h 5.6 km/h 89 % 0 mm
20:35 14.6 °C 12.8 °C 1018.8 hPa SSE 3.1 km/h 5.6 km/h 89 % 0 mm
20:40 14.5 °C 12.7 °C 1019.2 hPa Calm     89 % 0 mm
20:45 14.5 °C 12.9 °C 1019.2 hPa Calm     90 % 0 mm
20:50 14.4 °C 12.8 °C 1019.2 hPa SSE 0.2 km/h 3.7 km/h 90 % 0 mm
20:51 14.4 °C 12.8 °C 1018.8 hPa SSE 2.1 km/h 5.6 km/h 90 % 0 mm
21:01 14.4 °C 12.8 °C 1018.8 hPa SSE 1.6 km/h 3.2 km/h 90 % 0 mm
21:06 14.4 °C 12.9 °C 1018.8 hPa SSE 0.2 km/h   91 % 0 mm
21:11 14.4 °C 12.9 °C 1018.8 hPa Calm     91 % 0 mm
21:16 14.4 °C 12.9 °C 1018.8 hPa Calm     91 % 0 mm
21:22 14.3 °C 12.9 °C 1018.8 hPa Calm     91 % 0 mm
21:27 14.3 °C 12.9 °C 1018.8 hPa SSE 0.8 km/h 3.7 km/h 91 % 0 mm
21:32 14.3 °C 12.9 °C 1019.2 hPa SE 5.6 km/h 9.3 km/h 91 % 0 mm
21:37 14.3 °C 13 °C 1018.8 hPa SE 1.8 km/h 6.4 km/h 92 % 0 mm
21:42 14.2 °C 12.9 °C 1018.8 hPa SE 1.6 km/h 7.4 km/h 92 % 0 mm
21:47 14.2 °C 12.9 °C 1018.8 hPa SE 2.6 km/h 5.6 km/h 92 % 0 mm
21:52 14.2 °C 13.1 °C 1018.8 hPa SSE 1.4 km/h 5.6 km/h 93 % 0 mm
21:57 14.2 °C 13.1 °C 1018.8 hPa SSE 3.1 km/h 9.3 km/h 93 % 0 mm
22:02 14.1 °C 13 °C 1018.8 hPa Calm   3.7 km/h 93 % 0 mm
22:07 14.1 °C 13 °C 1018.8 hPa Calm     93 % 0 mm
22:12 14.1 °C 13 °C 1018.8 hPa SSE 1.8 km/h 3.2 km/h 93 % 0 mm
22:17 14.1 °C 12.9 °C 1018.8 hPa Calm     93 % 0 mm
22:22 14.1 °C 12.9 °C 1018.8 hPa Calm     93 % 0 mm
22:27 14.1 °C 13.1 °C 1018.8 hPa Calm     94 % 0 mm
22:32 14.1 °C 13.1 °C 1018.8 hPa SSE 0.3 km/h 3.7 km/h 94 % 0 mm
22:37 14.1 °C 13.1 °C 1018.8 hPa SSE 1.6 km/h 7.4 km/h 94 % 0 mm
22:42 14.1 °C 13.1 °C 1018.8 hPa SE 0.2 km/h 3.7 km/h 94 % 0 mm
22:47 14 °C 13.1 °C 1018.8 hPa SE 4.7 km/h 5.6 km/h 94 % 0 mm
22:53 13.9 °C 13.2 °C 1018.5 hPa SE 1.6 km/h 5.6 km/h 95 % 0 mm
22:58 13.9 °C 13.2 °C 1018.8 hPa SE 0.6 km/h 7.4 km/h 95 % 0 mm
23:03 13.9 °C 13.2 °C 1018.5 hPa SE 2.1 km/h 5.6 km/h 95 % 0 mm
23:08 13.9 °C 13.1 °C 1018.5 hPa SE 0.3 km/h 3.7 km/h 95 % 0 mm
23:13 13.9 °C 13.1 °C 1018.5 hPa Calm   1.9 km/h 95 % 0 mm
23:18 13.9 °C 13.1 °C 1018.5 hPa Calm     95 % 0 mm
23:23 13.9 °C 13.1 °C 1018.5 hPa SE 0.3 km/h 1.9 km/h 95 % 0 mm
23:28 13.9 °C 13.1 °C 1018.5 hPa Calm     95 % 0 mm
23:33 13.9 °C 13.1 °C 1018.5 hPa SE 0.5 km/h 3.7 km/h 95 % 0 mm
23:38 13.9 °C 13.1 °C 1018.5 hPa Calm   1.9 km/h 95 % 0 mm
23:43 13.9 °C 13.1 °C 1018.5 hPa ESE 1.9 km/h 5.6 km/h 95 % 0 mm
23:48 13.9 °C 13.3 °C 1018.5 hPa SE 0.3 km/h 3.7 km/h 96 % 0 mm
23:53 13.9 °C 13.3 °C 1018.5 hPa SE 0.2 km/h 3.7 km/h 96 % 0 mm
23:58 13.9 °C 13.3 °C 1018.5 hPa SE 0.3 km/h 3.7 km/h 96 % 0 mm
Crab Meadow Weather
Compliments of Weather Underground - 3 mb

Script developed by  Jim McMurry - jmcmurry@mwt.net Adapted for the template by  Wim van der Kuil - Leuven-Template.eu

Heat Index: The heat index combines air temperature and dew point in an attempt to determine the human-perceived equivalent temperature - how hot it feels. The human body normally cools itself by sweating, which evaporates and carries heat away from the body. However, when the relative humidity is high the evaporation rate is reduced, so heat is removed from the body at a lower rate causing it to retain more heat than it would in dry air.